NSZ9BH EKYT-EKCH

Flight info

Callsign NSZ9BH
Flight time 0h 30m
Altitude 17000
Route AAL M725 ADSEN DCT TNO
Aircraft B738/M-SDE2E3FGHIRWXY/LB1

Departure

Time 2026-05-07 19:17
Airport Aalborg Airport (EKYT)

Arrival

Time 2026-05-07 19:47
Airport Copenhagen Kastrup Airport (EKCH)
Time Latitude Longitude Altitude Speed Heading
2026-05-07 18:55 57.08640 9.87065 19 ft 0 kts 61°
2026-05-07 19:08 57.08638 9.87058 18 ft 2 kts 54°
2026-05-07 19:08 57.08631 9.87045 18 ft 2 kts 49°
2026-05-07 19:09 57.08618 9.87021 18 ft 3 kts 34°
2026-05-07 19:09 57.08610 9.87011 19 ft 2 kts 17°
2026-05-07 19:12 57.08612 9.87009 19 ft 2 kts 355°
2026-05-07 19:12 57.08645 9.86919 19 ft 18 kts 303°
2026-05-07 19:12 57.08761 9.86721 17 ft 24 kts 322°
2026-05-07 19:12 57.08887 9.86537 17 ft 24 kts 322°
2026-05-07 19:13 57.09042 9.86317 17 ft 29 kts 322°
2026-05-07 19:13 57.09195 9.86100 17 ft 27 kts 323°
2026-05-07 19:13 57.09312 9.85939 17 ft 13 kts 322°
2026-05-07 19:13 57.09334 9.85785 16 ft 15 kts 265°
2026-05-07 19:14 57.09313 9.85482 19 ft 31 kts 263°
2026-05-07 19:14 57.09287 9.85085 17 ft 31 kts 263°
2026-05-07 19:14 57.09263 9.84701 16 ft 30 kts 263°
2026-05-07 19:14 57.09238 9.84334 16 ft 28 kts 262°
2026-05-07 19:15 57.09216 9.83989 17 ft 26 kts 262°
2026-05-07 19:15 57.09197 9.83724 19 ft 20 kts 262°
2026-05-07 19:15 57.09212 9.83562 17 ft 5 kts 295°
2026-05-07 19:15 57.09248 9.83490 16 ft 13 kts 313°
2026-05-07 19:16 57.09336 9.83392 15 ft 17 kts
2026-05-07 19:16 57.09387 9.83608 14 ft 34 kts 84°
2026-05-07 19:16 57.09443 9.84474 18 ft 101 kts 83°
2026-05-07 19:16 57.09548 9.86108 51 ft 151 kts 83°
2026-05-07 19:17 57.09701 9.88040 595 ft 154 kts 80°
2026-05-07 19:17 57.09876 9.90008 1283 ft 156 kts 85°
2026-05-07 19:17 57.10047 9.92017 1850 ft 165 kts 83°
2026-05-07 19:17 57.10251 9.94273 2130 ft 193 kts 83°
2026-05-07 19:18 57.10471 9.96853 2356 ft 216 kts 83°
2026-05-07 19:18 57.10699 9.99733 2538 ft 240 kts 83°
2026-05-07 19:18 57.10937 10.02913 2919 ft 258 kts 83°
2026-05-07 19:18 57.11175 10.06246 3512 ft 268 kts 83°
2026-05-07 19:19 57.11256 10.09673 4276 ft 268 kts 100°
2026-05-07 19:19 57.10515 10.12783 5010 ft 271 kts 130°
2026-05-07 19:19 57.09110 10.15000 5719 ft 271 kts 149°
2026-05-07 19:19 57.07476 10.16742 6498 ft 273 kts 152°
2026-05-07 19:20 57.05801 10.18418 7239 ft 275 kts 153°
2026-05-07 19:20 57.04107 10.20093 7997 ft 278 kts 153°
2026-05-07 19:20 57.02406 10.21778 8782 ft 280 kts 153°
2026-05-07 19:20 57.00685 10.23491 9606 ft 283 kts 152°
2026-05-07 19:21 56.98947 10.25226 9940 ft 286 kts 152°
2026-05-07 19:21 56.97142 10.27033 10674 ft 308 kts 152°
2026-05-07 19:21 56.95213 10.28968 10869 ft 331 kts 152°
2026-05-07 19:21 56.93132 10.31059 11069 ft 352 kts 152°
2026-05-07 19:22 56.90950 10.33253 11531 ft 362 kts 152°
2026-05-07 19:22 56.88727 10.35491 12100 ft 366 kts 152°
2026-05-07 19:22 56.86492 10.37738 12129 ft 368 kts 152°
2026-05-07 19:22 56.84253 10.39988 12139 ft 366 kts 152°
2026-05-07 19:23 56.82031 10.42252 12144 ft 367 kts 149°
2026-05-07 19:23 56.79946 10.44948 12150 ft 367 kts 143°
2026-05-07 19:23 56.77960 10.47817 12436 ft 371 kts 142°
2026-05-07 19:23 56.75937 10.50796 13141 ft 375 kts 142°
2026-05-07 19:24 56.73898 10.53789 13888 ft 379 kts 142°
2026-05-07 19:24 56.71826 10.56803 14574 ft 382 kts 142°
2026-05-07 19:24 56.69739 10.59816 15271 ft 386 kts 142°
2026-05-07 19:24 56.67617 10.62856 15953 ft 390 kts 142°
2026-05-07 19:25 56.65472 10.65914 16622 ft 394 kts 142°
2026-05-07 19:25 56.63305 10.68991 17129 ft 398 kts 142°
2026-05-07 19:25 56.61083 10.72138 17149 ft 412 kts 142°
2026-05-07 19:25 56.58794 10.75372 17157 ft 424 kts 142°
2026-05-07 19:26 56.56479 10.78636 17151 ft 427 kts 142°
2026-05-07 19:26 56.54141 10.81929 17137 ft 423 kts 142°
2026-05-07 19:26 56.51829 10.85180 17145 ft 420 kts 142°
2026-05-07 19:26 56.49518 10.88425 17149 ft 420 kts 143°
2026-05-07 19:27 56.47208 10.91663 17151 ft 420 kts 143°
2026-05-07 19:27 56.44899 10.94894 17162 ft 421 kts 143°
2026-05-07 19:27 56.42576 10.98140 17155 ft 422 kts 143°
2026-05-07 19:27 56.40249 11.01386 17151 ft 424 kts 143°
2026-05-07 19:28 56.37912 11.04641 17152 ft 424 kts 143°
2026-05-07 19:28 56.35568 11.07900 17152 ft 425 kts 143°
2026-05-07 19:28 56.33260 11.11104 17154 ft 425 kts 143°
2026-05-07 19:28 56.30925 11.14341 17117 ft 424 kts 143°
2026-05-07 19:29 56.28588 11.17576 17086 ft 423 kts 143°
2026-05-07 19:29 56.26258 11.20795 17140 ft 424 kts 143°
2026-05-07 19:29 56.23916 11.24025 17140 ft 424 kts 143°
2026-05-07 19:29 56.21591 11.27229 17127 ft 413 kts 143°
2026-05-07 19:30 56.19351 11.30311 16973 ft 402 kts 143°
2026-05-07 19:30 56.17147 11.33338 16528 ft 395 kts 143°
2026-05-07 19:30 56.15001 11.36280 16034 ft 390 kts 143°
2026-05-07 19:30 56.12863 11.39208 15496 ft 385 kts 143°
2026-05-07 19:31 56.10740 11.42111 14967 ft 381 kts 143°
2026-05-07 19:31 56.08637 11.44981 14450 ft 378 kts 143°
2026-05-07 19:31 56.06560 11.47812 13919 ft 374 kts 143°
2026-05-07 19:31 56.04499 11.50618 13374 ft 371 kts 143°
2026-05-07 19:32 56.02446 11.53410 13211 ft 370 kts 142°
2026-05-07 19:32 56.00440 11.56133 13145 ft 356 kts 142°
2026-05-07 19:32 55.98509 11.58751 13127 ft 340 kts 143°
2026-05-07 19:32 55.96695 11.61208 13129 ft 324 kts 143°
2026-05-07 19:33 55.94924 11.63603 12690 ft 322 kts 142°
2026-05-07 19:33 55.93110 11.66055 11921 ft 332 kts 142°
2026-05-07 19:33 55.91248 11.68568 11279 ft 336 kts 142°
2026-05-07 19:33 55.89424 11.71027 11190 ft 323 kts 142°
2026-05-07 19:34 55.87667 11.73391 11089 ft 310 kts 142°
2026-05-07 19:34 55.85975 11.75666 10998 ft 299 kts 142°
2026-05-07 19:34 55.84343 11.77857 10895 ft 289 kts 142°
2026-05-07 19:34 55.82753 11.79991 10634 ft 285 kts 142°
2026-05-07 19:35 55.81185 11.82093 10376 ft 282 kts 142°
2026-05-07 19:35 55.79641 11.84161 10114 ft 281 kts 142°
2026-05-07 19:35 55.78085 11.86243 9826 ft 280 kts 142°
2026-05-07 19:35 55.76530 11.88322 9533 ft 279 kts 142°
2026-05-07 19:36 55.74982 11.90389 9241 ft 279 kts 142°
2026-05-07 19:36 55.73432 11.92456 8952 ft 278 kts 142°
2026-05-07 19:36 55.71889 11.94513 8671 ft 277 kts 142°
2026-05-07 19:36 55.70347 11.96565 8341 ft 278 kts 142°
2026-05-07 19:37 55.68791 11.98635 7978 ft 280 kts 142°
2026-05-07 19:37 55.67231 12.00707 7642 ft 279 kts 142°
2026-05-07 19:37 55.65698 12.02740 7314 ft 272 kts 142°
2026-05-07 19:37 55.64197 12.04730 6952 ft 269 kts 142°
2026-05-07 19:38 55.62716 12.06691 6611 ft 269 kts 142°
2026-05-07 19:38 55.61218 12.08674 6236 ft 269 kts 142°
2026-05-07 19:38 55.59723 12.10651 5865 ft 268 kts 142°
2026-05-07 19:38 55.58228 12.12627 5494 ft 267 kts 142°
2026-05-07 19:39 55.56756 12.14570 5137 ft 262 kts 142°
2026-05-07 19:39 55.55307 12.16480 4768 ft 257 kts 142°
2026-05-07 19:39 55.53888 12.18350 4386 ft 252 kts 142°
2026-05-07 19:39 55.52493 12.20184 4046 ft 247 kts 142°
2026-05-07 19:40 55.51156 12.21939 3986 ft 235 kts 142°
2026-05-07 19:40 55.49913 12.23648 3965 ft 222 kts 133°
2026-05-07 19:40 55.49018 12.25716 3982 ft 205 kts 124°
2026-05-07 19:40 55.48196 12.27730 3793 ft 201 kts 125°
2026-05-07 19:41 55.47386 12.29700 3605 ft 195 kts 125°
2026-05-07 19:41 55.46595 12.31612 3371 ft 192 kts 124°
2026-05-07 19:41 55.46001 12.33653 3056 ft 187 kts 95°
2026-05-07 19:41 55.46117 12.35881 2821 ft 182 kts 76°
2026-05-07 19:42 55.46382 12.37995 2804 ft 174 kts 75°
2026-05-07 19:42 55.46697 12.40017 2803 ft 167 kts 63°
2026-05-07 19:42 55.47228 12.41789 2792 ft 161 kts 53°
2026-05-07 19:42 55.47987 12.43185 2696 ft 160 kts 39°
2026-05-07 19:43 55.48830 12.44457 2334 ft 160 kts 39°
2026-05-07 19:43 55.49665 12.45708 2018 ft 150 kts 38°
2026-05-07 19:43 55.50474 12.46843 2004 ft 149 kts 38°
2026-05-07 19:43 55.51266 12.48012 1991 ft 150 kts 39°
2026-05-07 19:44 55.52072 12.49246 1919 ft 157 kts 39°
2026-05-07 19:44 55.52891 12.50514 1732 ft 157 kts 40°
2026-05-07 19:44 55.53704 12.51778 1510 ft 154 kts 40°
2026-05-07 19:44 55.54507 12.53029 1278 ft 153 kts 40°
2026-05-07 19:45 55.55282 12.54279 1088 ft 153 kts 41°
2026-05-07 19:45 55.56073 12.55554 905 ft 159 kts 40°
2026-05-07 19:45 55.56927 12.56805 770 ft 158 kts 37°
2026-05-07 19:45 55.57744 12.58040 564 ft 150 kts 40°
2026-05-07 19:46 55.58514 12.59250 320 ft 149 kts 41°
2026-05-07 19:46 55.59297 12.60473 73 ft 148 kts 39°
2026-05-07 19:46 55.60022 12.61585 27 ft 126 kts 42°
2026-05-07 19:46 55.60593 12.62468 28 ft 92 kts 41°
2026-05-07 19:47 55.60986 12.63067 25 ft 58 kts 41°
2026-05-07 19:47 55.61195 12.63404 27 ft 23 kts 45°
2026-05-07 19:47 55.61307 12.63575 26 ft 24 kts 41°
2026-05-07 19:47 55.61407 12.63688 26 ft 11 kts
2026-05-07 19:48 55.61485 12.63680 23 ft 12 kts 355°
2026-05-07 19:48 55.61573 12.63666 26 ft 14 kts 354°
2026-05-07 19:48 55.61660 12.63741 25 ft 16 kts 44°
2026-05-07 19:48 55.61744 12.63869 26 ft 16 kts 42°
2026-05-07 19:49 55.61822 12.63992 23 ft 14 kts 41°
2026-05-07 19:49 55.61901 12.64089 23 ft 14 kts 26°
2026-05-07 19:49 55.61984 12.64159 24 ft 13 kts 24°
2026-05-07 19:49 55.62063 12.64231 23 ft 13 kts 26°
2026-05-07 19:50 55.62146 12.64298 22 ft 15 kts 25°
2026-05-07 19:50 55.62245 12.64358 21 ft 15 kts 340°
2026-05-07 19:50 55.62310 12.64203 21 ft 20 kts 304°
2026-05-07 19:50 55.62398 12.63961 21 ft 23 kts 303°
2026-05-07 19:51 55.62486 12.63728 22 ft 22 kts 303°
2026-05-07 19:51 55.62563 12.63533 21 ft 17 kts 319°
2026-05-07 19:51 55.62640 12.63496 22 ft 10 kts 351°
2026-05-07 19:51 55.62695 12.63417 22 ft 12 kts 303°
2026-05-07 19:52 55.62725 12.63332 21 ft 4 kts 303°
2026-05-07 19:52 55.62741 12.63290 22 ft 4 kts 304°
2026-05-07 19:52 55.62764 12.63237 22 ft 6 kts 318°
2026-05-07 19:52 55.62801 12.63230 22 ft 5 kts
2026-05-07 19:53 55.62827 12.63235 22 ft 3 kts
2026-05-07 19:53 55.62830 12.63235 22 ft 0 kts